#timestamp,LO_Frequency,Hit,StdDev 
1662123615.2,286046995.0,Y
1662123635.0,286046995.8,P
1662123635.9,286046995.8,P
1662123655.8,286046996.7,N
1662123675.6,286046997.3,N
1662123695.4,286046997.7,N
1662123715.3,286046997.6,N
1662123735.1,286046996.7,Y
1662123755.9,286047002.8,P
1662123775.7,286047000.0,N
1662123795.5,286047000.6,N
1662123815.4,286046999.9,N
1662123835.2,286047000.4,N
1662123855.0,286047001.1,N
1662123856.0,286047001.1,N
1662123875.8,286047000.7,N
1662123895.6,286047000.4,N
1662123915.5,286047002.7,N
1662123935.3,286047000.3,N
1662123955.1,286047000.7,N
1662123975.9,286047000.4,N
1662123995.7,286046999.9,N
1662124015.6,286047002.4,N
1662124035.4,286047000.1,N
1662124055.2,286046999.8,N
1662124075.1,286047000.8,N
1662124076.0,286047000.8,N
1662124095.8,286046999.4,N
1662124115.6,286046999.5,N
1662124135.5,286046998.9,N
1662124155.3,286046999.4,N
1662124175.2,286046998.9,N
1662124195.9,286046999.6,N
1662124215.7,286046999.6,N
1662124235.6,286046996.5,Y
1662124255.4,286046999.0,P
1662124275.2,286046998.7,N
1662124295.1,286046999.0,N
1662124296.0,286046999.0,N
1662124315.8,286046996.6,Y
1662124335.7,286047001.1,P
1662124355.5,286046998.3,N
1662124375.3,286047001.1,N
1662124395.2,286047000.9,N
1662124415.0,286046998.6,N
1662124415.9,286046998.6,N
1662124435.8,286046998.3,N
1662124455.6,286046998.1,N
1662124475.4,286047001.1,N
1662124495.3,286047000.9,N
1662124515.1,286047001.1,N
1662124535.8,286047000.9,N
1662124555.7,286046998.1,N
1662124575.5,286047000.6,N
1662124595.4,286047000.0,N
1662124615.2,286047000.1,N
1662124635.0,286047002.8,N
1662124635.9,286047002.8,N
1662124655.8,286047000.6,N
1662124675.6,286047000.6,N
1662124695.4,286047000.4,N
1662124715.3,286047002.8,N
1662124735.1,286046998.5,N
1662124755.9,286047000.6,N
1662124775.7,286047001.0,N
1662124795.5,286046998.6,N
1662124815.4,286047000.5,N
1662124835.2,286047000.7,N
1662124855.0,286046998.4,N
1662124855.9,286046998.4,N
1662124875.8,286047001.0,N
1662124895.6,286047000.9,N
1662124915.5,286047000.3,N
1662124935.3,286046998.6,N
1662124955.1,286046998.3,N
1662124975.9,286046998.7,N
1662124995.7,286046998.5,N
1662125015.5,286046999.3,N
1662125035.4,286046998.3,N
1662125055.2,286046999.3,N
1662125075.1,286046998.9,N
1662125076.0,286046998.9,N
1662125095.8,286047000.7,N
1662125115.6,286047000.5,N
1662125135.5,286047002.4,N
1662125155.3,286047002.3,N
1662125175.1,286047000.5,N
1662125195.9,286047000.0,N
1662125215.7,286047000.8,N
1662125235.6,286047000.4,N
1662125255.4,286047000.5,N
1662125275.2,286047000.9,N
1662125295.1,286047000.8,N
1662125296.0,286047000.8,N
1662125315.8,286046996.7,N
1662125335.7,286046998.4,N
1662125355.5,286046998.6,N
1662125375.3,286046998.6,N
1662125395.2,286046998.3,N
1662125415.9,286046998.1,N
1662125435.7,286046999.1,N
1662125455.6,286046998.4,N
1662125475.4,286046999.1,N
1662125495.3,286046999.6,N
1662125515.1,286046996.9,N
1662125535.9,286046997.4,N
1662125555.7,286046995.2,Y
1662125575.5,286046996.1,P
1662125595.4,286046993.9,P
1662125615.2,286046994.4,N
1662125635.1,286046994.7,N
1662125636.0,286046994.7,N
1662125655.8,286046994.2,Y
1662125675.6,286046999.3,P
1662125695.5,286046998.7,N
1662125715.3,286046996.5,N
1662125735.2,286046999.1,N
1662125755.0,286046998.8,N
1662125755.9,286046998.8,N
1662125775.7,286046999.1,N
1662125795.6,286046996.9,N
1662125815.4,286046999.2,N
1662125835.3,286046998.9,N
1662125855.1,286046999.5,N
1662125875.8,286046996.9,N
1662125895.7,286046999.5,N
1662125915.5,286046999.0,N
1662125935.4,286046999.4,N
1662125955.2,286046999.3,N
1662125975.0,286046999.4,N
1662125975.9,286046999.4,N
1662125995.8,286046998.4,N
1662126015.6,286046998.3,N
1662126035.5,286046998.1,N
1662126055.3,286047000.5,N
1662126075.1,286047001.0,N
1662126095.9,286047000.4,N
1662126115.7,286047000.0,N
1662126135.6,286047002.2,N
1662126155.4,286046999.8,N
1662126175.2,286047000.4,N
1662126195.1,286047000.0,N
1662126196.0,286047000.0,N
1662126215.8,286047000.4,N
1662126235.6,286047002.5,N
1662126255.5,286047002.2,N
1662126275.3,286047001.3,N
1662126295.2,286047001.4,N
1662126315.9,286047001.8,N
1662126335.7,286047002.8,N
1662126355.6,286046999.9,N
1662126375.4,286047000.3,N
1662126395.2,286047002.5,N
1662126415.1,286047002.6,N
1662126416.0,286047002.6,N
1662126435.8,286047002.3,N
1662126455.7,286047001.9,N
1662126475.5,286047001.5,N
1662126495.3,286047001.9,N
1662126515.2,286047001.9,N
1662126535.0,286047004.0,N
1662126535.9,286047004.0,N
1662126555.7,286047004.3,Y
1662126575.6,286046999.8,P
1662126595.4,286047002.0,N
1662126615.3,286047004.4,P
1662126635.1,286047004.1,N
1662126636.0,286047004.1,N
1662126655.8,286047003.5,N
1662126675.7,286047003.3,N
1662126695.5,286047005.9,Y
1662126715.3,286047000.0,P
1662126735.2,286047000.5,N
1662126755.0,286046998.5,N
1662126755.9,286046998.5,N
1662126775.8,286046998.3,N
1662126795.6,286046999.6,N
1662126815.4,286046997.1,N
1662126835.3,286046996.5,N
1662126855.1,286046999.0,N
1662126875.8,286046998.5,N
1662126895.7,286046998.5,N
1662126915.5,286047000.8,N
1662126935.4,286047000.8,N
1662126955.2,286047000.6,N
1662126975.0,286047002.8,N
1662126975.9,286047002.8,N
1662126995.8,286047002.8,N
1662127015.6,286047002.7,N
1662127035.5,286047000.9,N
1662127055.3,286047000.6,N
1662127075.1,286046999.9,N
1662127095.9,286047001.8,N
1662127115.7,286047004.3,N
1662127135.6,286047004.2,N
1662127155.4,286047001.7,N
1662127175.2,286047001.9,N
1662127195.1,286047002.8,N
1662127196.0,286047002.8,N
